Time,TemperatureF,DewpointF,PressureIn,WindDirection,WindDirectionDegrees,WindSpeedMPH,WindSpeedGustMPH,Humidity,HourlyPrecipIn,Conditions,Clouds,dailyrainin,SoftwareType,DateUTC
2013-03-29 00:00:00,38.2,26.7,30.27,WNW,294,1.0,5.0,63,0.00,,---,0.00,VWS V14.01,2013-03-29 04:00:00,
2013-03-29 00:01:00,38.2,26.7,30.27,West,279,1.0,5.0,63,0.00,,---,0.00,VWS V14.01,2013-03-29 04:01:00,
2013-03-29 00:03:00,38.1,26.6,30.28,West,269,2.0,3.0,63,0.00,,---,0.00,VWS V14.01,2013-03-29 04:03:00,
2013-03-29 00:08:00,37.9,26.8,30.28,WNW,282,1.0,3.0,64,0.00,,---,0.00,VWS V14.01,2013-03-29 04:08:00,
2013-03-29 00:13:00,37.7,26.6,30.28,West,264,1.0,4.0,64,0.00,,---,0.00,VWS V14.01,2013-03-29 04:13:00,
2013-03-29 00:18:00,37.5,26.8,30.28,West,263,2.0,4.0,65,0.00,,---,0.00,VWS V14.01,2013-03-29 04:18:00,
2013-03-29 00:23:00,37.4,26.7,30.28,WNW,291,1.0,4.0,65,0.00,,---,0.00,VWS V14.01,2013-03-29 04:23:00,
2013-03-29 00:28:00,37.3,26.3,30.28,WNW,287,3.0,5.0,64,0.00,,---,0.00,VWS V14.01,2013-03-29 04:28:00,
2013-03-29 00:33:00,37.2,26.2,30.28,WNW,290,3.0,5.0,64,0.00,,---,0.00,VWS V14.01,2013-03-29 04:33:00,
2013-03-29 00:38:00,37.1,26.4,30.28,West,266,2.0,5.0,65,0.00,,---,0.00,VWS V14.01,2013-03-29 04:38:00,
2013-03-29 00:43:00,36.9,26.2,30.28,West,266,0.0,5.0,65,0.00,,---,0.00,VWS V14.01,2013-03-29 04:43:00,
2013-03-29 00:49:00,36.7,26.1,30.28,WNW,291,0.0,5.0,65,0.00,,---,0.00,VWS V14.01,2013-03-29 04:49:00,
2013-03-29 00:54:00,36.5,25.9,30.28,WNW,295,1.0,5.0,65,0.00,,---,0.00,VWS V14.01,2013-03-29 04:54:00,
2013-03-29 00:59:00,36.3,26.0,30.28,WNW,291,0.0,5.0,66,0.00,,---,0.00,VWS V14.01,2013-03-29 04:59:00,
2013-03-29 01:04:00,36.1,25.9,30.28,West,277,1.0,1.0,66,0.00,,---,0.00,VWS V14.01,2013-03-29 05:04:00,
2013-03-29 01:09:00,35.9,25.7,30.28,WNW,297,0.0,1.0,66,0.00,,---,0.00,VWS V14.01,2013-03-29 05:09:00,
2013-03-29 01:14:00,35.6,25.7,30.28,West,259,0.0,2.0,67,0.00,,---,0.00,VWS V14.01,2013-03-29 05:14:00,
2013-03-29 01:19:00,35.5,25.3,30.28,WNW,290,2.0,3.0,66,0.00,,---,0.00,VWS V14.01,2013-03-29 05:19:00,
2013-03-29 01:24:00,35.4,25.5,30.28,West,276,1.0,3.0,67,0.00,,---,0.00,VWS V14.01,2013-03-29 05:24:00,
2013-03-29 01:29:00,35.3,25.5,30.28,WNW,286,1.0,3.0,67,0.00,,---,0.00,VWS V14.01,2013-03-29 05:29:00,
2013-03-29 01:34:00,35.2,25.4,30.28,WNW,283,2.0,3.0,67,0.00,,---,0.00,VWS V14.01,2013-03-29 05:34:00,
2013-03-29 01:40:00,35.0,25.2,30.28,West,277,3.0,3.0,67,0.00,,---,0.00,VWS V14.01,2013-03-29 05:40:00,
2013-03-29 01:45:00,34.9,25.1,30.28,West,274,1.0,3.0,67,0.00,,---,0.00,VWS V14.01,2013-03-29 05:45:00,
2013-03-29 01:50:00,34.8,25.0,30.28,West,281,1.0,3.0,67,0.00,,---,0.00,VWS V14.01,2013-03-29 05:50:00,
2013-03-29 01:55:00,34.7,24.9,30.28,WNW,300,2.0,3.0,67,0.00,,---,0.00,VWS V14.01,2013-03-29 05:55:00,
2013-03-29 02:00:00,34.5,24.7,30.28,WNW,291,0.0,3.0,67,0.00,,---,0.00,VWS V14.01,2013-03-29 06:00:00,
2013-03-29 02:05:00,34.2,24.4,30.28,NW,307,0.0,1.0,67,0.00,,---,0.00,VWS V14.01,2013-03-29 06:05:00,
2013-03-29 02:10:00,34.0,24.6,30.28,NW,321,1.0,2.0,68,0.00,,---,0.00,VWS V14.01,2013-03-29 06:10:00,
2013-03-29 02:15:00,33.9,24.5,30.28,NW,307,1.0,2.0,68,0.00,,---,0.00,VWS V14.01,2013-03-29 06:15:00,
2013-03-29 02:21:00,33.7,24.3,30.28,WNW,295,1.0,3.0,68,0.00,,---,0.00,VWS V14.01,2013-03-29 06:21:00,
2013-03-29 02:26:00,33.6,24.2,30.28,NW,308,2.0,3.0,68,0.00,,---,0.00,VWS V14.01,2013-03-29 06:26:00,
2013-03-29 02:31:00,33.5,24.1,30.28,West,272,0.0,3.0,68,0.00,,---,0.00,VWS V14.01,2013-03-29 06:31:00,
2013-03-29 02:36:00,33.3,24.2,30.28,West,274,1.0,3.0,69,0.00,,---,0.00,VWS V14.01,2013-03-29 06:36:00,
2013-03-29 02:41:00,33.1,24.0,30.28,WSW,257,0.0,3.0,69,0.00,,---,0.00,VWS V14.01,2013-03-29 06:41:00,
2013-03-29 02:46:00,33.0,24.0,30.28,NW,308,1.0,3.0,69,0.00,,---,0.00,VWS V14.01,2013-03-29 06:46:00,
2013-03-29 02:52:00,32.9,23.9,30.28,West,281,0.0,3.0,69,0.00,,---,0.00,VWS V14.01,2013-03-29 06:52:00,
2013-03-29 02:57:00,32.7,23.7,30.28,West,281,0.0,3.0,69,0.00,,---,0.00,VWS V14.01,2013-03-29 06:57:00,
2013-03-29 03:02:00,32.5,23.5,30.28,WNW,286,0.0,0.0,69,0.00,,---,0.00,VWS V14.01,2013-03-29 07:02:00,
2013-03-29 03:07:00,32.0,23.0,30.28,North,352,0.0,1.0,69,0.00,,---,0.00,VWS V14.01,2013-03-29 07:07:00,
2013-03-29 03:12:00,31.7,23.0,30.28,NNW,347,1.0,1.0,70,0.00,,---,0.00,VWS V14.01,2013-03-29 07:12:00,
2013-03-29 03:17:00,31.8,23.5,30.28,NW,308,0.0,2.0,71,0.00,,---,0.00,VWS V14.01,2013-03-29 07:17:00,
2013-03-29 03:22:00,31.9,23.6,30.28,NW,307,0.0,2.0,71,0.00,,---,0.00,VWS V14.01,2013-03-29 07:22:00,
2013-03-29 03:27:00,31.7,23.0,30.28,NW,310,0.0,2.0,70,0.00,,---,0.00,VWS V14.01,2013-03-29 07:27:00,
2013-03-29 03:32:00,31.3,23.0,30.28,NW,311,0.0,2.0,71,0.00,,---,0.00,VWS V14.01,2013-03-29 07:32:00,
2013-03-29 03:37:00,31.1,23.1,30.28,NW,322,0.0,2.0,72,0.00,,---,0.00,VWS V14.01,2013-03-29 07:37:00,
2013-03-29 03:42:00,31.3,23.3,30.28,North,360,0.0,2.0,72,0.00,,---,0.00,VWS V14.01,2013-03-29 07:42:00,
2013-03-29 03:47:00,31.4,23.4,30.28,NNW,348,1.0,2.0,72,0.00,,---,0.00,VWS V14.01,2013-03-29 07:47:00,
2013-03-29 03:53:00,31.5,23.2,30.28,NNW,348,0.0,2.0,71,0.00,,---,0.00,VWS V14.01,2013-03-29 07:53:00,
2013-03-29 03:58:00,31.4,23.1,30.28,North,349,0.0,2.0,71,0.00,,---,0.00,VWS V14.01,2013-03-29 07:58:00,
2013-03-29 04:03:00,31.2,22.9,30.28,NNW,348,0.0,0.0,71,0.00,,---,0.00,VWS V14.01,2013-03-29 08:03:00,
2013-03-29 04:08:00,31.0,23.0,30.28,North,349,0.0,1.0,72,0.00,,---,0.00,VWS V14.01,2013-03-29 08:08:00,
2013-03-29 04:13:00,30.8,22.9,30.28,WSW,253,0.0,1.0,72,0.00,,---,0.00,VWS V14.01,2013-03-29 08:13:00,
2013-03-29 04:18:00,30.8,22.9,30.28,West,280,0.0,2.0,72,0.00,,---,0.00,VWS V14.01,2013-03-29 08:18:00,
2013-03-29 04:23:00,30.8,22.9,30.28,WNW,293,0.0,2.0,72,0.00,,---,0.00,VWS V14.01,2013-03-29 08:23:00,
2013-03-29 04:28:00,30.8,22.9,30.28,WNW,287,0.0,2.0,72,0.00,,---,0.00,VWS V14.01,2013-03-29 08:28:00,
2013-03-29 04:34:00,30.7,23.1,30.28,West,271,0.0,3.0,73,0.00,,---,0.00,VWS V14.01,2013-03-29 08:34:00,
2013-03-29 04:39:00,30.6,23.0,30.28,West,274,0.0,3.0,73,0.00,,---,0.00,VWS V14.01,2013-03-29 08:39:00,
2013-03-29 04:44:00,30.7,23.1,30.28,West,276,0.0,3.0,73,0.00,,---,0.00,VWS V14.01,2013-03-29 08:44:00,
2013-03-29 04:49:00,30.7,23.1,30.28,WNW,298,1.0,3.0,73,0.00,,---,0.00,VWS V14.01,2013-03-29 08:49:00,
2013-03-29 04:54:00,30.9,23.3,30.28,NW,310,2.0,3.0,73,0.00,,---,0.00,VWS V14.01,2013-03-29 08:54:00,
2013-03-29 04:59:00,30.9,23.0,30.28,WNW,290,0.0,3.0,72,0.00,,---,0.00,VWS V14.01,2013-03-29 08:59:00,
2013-03-29 05:04:00,30.8,22.9,30.28,West,274,1.0,1.0,72,0.00,,---,0.00,VWS V14.01,2013-03-29 09:04:00,
2013-03-29 05:09:00,30.7,22.8,30.28,West,264,1.0,2.0,72,0.00,,---,0.00,VWS V14.01,2013-03-29 09:09:00,
2013-03-29 05:14:00,30.5,22.9,30.28,West,263,1.0,2.0,73,0.00,,---,0.00,VWS V14.01,2013-03-29 09:14:00,
2013-03-29 05:19:00,30.5,22.9,30.28,West,263,1.0,3.0,73,0.00,,---,0.00,VWS V14.01,2013-03-29 09:19:00,
2013-03-29 05:25:00,30.5,22.9,30.28,WNW,290,2.0,3.0,73,0.00,,---,0.00,VWS V14.01,2013-03-29 09:25:00,
2013-03-29 05:30:00,30.4,22.8,30.28,WNW,292,0.0,3.0,73,0.00,,---,0.00,VWS V14.01,2013-03-29 09:30:00,
2013-03-29 05:35:00,30.2,22.3,30.28,WNW,285,1.0,3.0,72,0.00,,---,0.00,VWS V14.01,2013-03-29 09:35:00,
2013-03-29 05:40:00,30.2,22.6,30.28,WNW,293,1.0,3.0,73,0.00,,---,0.00,VWS V14.01,2013-03-29 09:40:00,
2013-03-29 05:45:00,30.2,22.6,30.28,WNW,287,1.0,3.0,73,0.00,,---,0.00,VWS V14.01,2013-03-29 09:45:00,
2013-03-29 05:50:00,30.1,22.5,30.28,NW,306,1.0,3.0,73,0.00,,---,0.00,VWS V14.01,2013-03-29 09:50:00,
2013-03-29 05:55:00,29.9,22.3,30.28,WNW,285,2.0,3.0,73,0.00,,---,0.00,VWS V14.01,2013-03-29 09:55:00,
2013-03-29 06:00:00,29.9,22.3,30.28,West,263,1.0,3.0,73,0.00,,---,0.00,VWS V14.01,2013-03-29 10:00:00,
2013-03-29 06:05:00,29.9,22.3,30.28,WSW,250,1.0,2.0,73,0.00,,---,0.00,VWS V14.01,2013-03-29 10:05:00,
2013-03-29 06:10:00,29.8,22.2,30.28,West,266,0.0,3.0,73,0.00,,---,0.00,VWS V14.01,2013-03-29 10:10:00,
2013-03-29 06:15:00,29.6,22.0,30.28,WSW,246,0.0,3.0,73,0.00,,---,0.00,VWS V14.01,2013-03-29 10:15:00,
2013-03-29 06:21:00,29.4,22.1,30.28,WSW,246,0.0,3.0,74,0.00,,---,0.00,VWS V14.01,2013-03-29 10:21:00,
2013-03-29 06:26:00,29.1,21.9,30.28,WSW,246,0.0,3.0,74,0.00,,---,0.00,VWS V14.01,2013-03-29 10:26:00,
2013-03-29 06:31:00,29.0,22.1,30.28,West,262,0.0,3.0,75,0.00,,---,0.00,VWS V14.01,2013-03-29 10:31:00,
2013-03-29 06:36:00,28.8,21.9,30.28,West,260,0.0,3.0,75,0.00,,---,0.00,VWS V14.01,2013-03-29 10:36:00,
2013-03-29 06:41:00,28.5,21.6,30.28,West,260,0.0,3.0,75,0.00,,---,0.00,VWS V14.01,2013-03-29 10:41:00,
2013-03-29 06:46:00,27.3,20.4,30.28,West,261,0.0,3.0,75,0.00,,---,0.00,VWS V14.01,2013-03-29 10:46:00,
2013-03-29 06:51:00,27.8,20.9,30.28,West,260,0.0,3.0,75,0.00,,---,0.00,VWS V14.01,2013-03-29 10:51:00,
2013-03-29 06:56:00,27.8,20.9,30.28,West,260,0.0,3.0,75,0.00,,---,0.00,VWS V14.01,2013-03-29 10:56:00,
2013-03-29 07:01:00,27.8,20.9,30.29,West,260,0.0,3.0,75,0.00,,---,0.00,VWS V14.01,2013-03-29 11:01:00,
2013-03-29 07:07:00,27.8,20.9,30.28,West,260,0.0,0.0,75,0.00,,---,0.00,VWS V14.01,2013-03-29 11:07:00,
2013-03-29 07:12:00,27.8,20.9,30.28,West,260,0.0,0.0,75,0.00,,---,0.00,VWS V14.01,2013-03-29 11:12:00,
2013-03-29 07:17:00,27.8,20.9,30.28,West,260,0.0,0.0,75,0.00,,---,0.00,VWS V14.01,2013-03-29 11:17:00,
2013-03-29 07:22:00,27.8,20.9,30.28,West,260,0.0,0.0,75,0.00,,---,0.00,VWS V14.01,2013-03-29 11:22:00,
2013-03-29 07:27:00,27.8,20.9,30.28,West,260,0.0,0.0,75,0.00,,---,0.00,VWS V14.01,2013-03-29 11:27:00,
2013-03-29 07:32:00,27.8,20.9,30.28,West,260,0.0,0.0,75,0.00,,---,0.00,VWS V14.01,2013-03-29 11:32:00,
2013-03-29 07:37:00,27.8,20.9,30.28,West,260,0.0,0.0,75,0.00,,---,0.00,VWS V14.01,2013-03-29 11:37:00,
2013-03-29 07:43:00,27.8,20.9,30.28,West,260,0.0,0.0,75,0.00,,---,0.00,VWS V14.01,2013-03-29 11:43:00,
2013-03-29 07:48:00,27.8,20.9,30.28,West,260,0.0,0.0,75,0.00,,---,0.00,VWS V14.01,2013-03-29 11:48:00,
2013-03-29 07:53:00,27.8,20.9,30.28,West,260,0.0,0.0,75,0.00,,---,0.00,VWS V14.01,2013-03-29 11:53:00,
2013-03-29 07:58:00,27.8,20.9,30.28,West,260,0.0,0.0,75,0.00,,---,0.00,VWS V14.01,2013-03-29 11:58:00,
2013-03-29 08:03:00,27.8,20.9,30.28,West,260,0.0,0.0,75,0.00,,---,0.00,VWS V14.01,2013-03-29 12:03:00,
2013-03-29 08:08:00,28.6,22.6,30.28,SW,232,0.0,0.0,78,0.00,,---,0.00,VWS V14.01,2013-03-29 12:08:00,
2013-03-29 08:13:00,29.1,23.1,30.28,SW,232,0.0,0.0,78,0.00,,---,0.00,VWS V14.01,2013-03-29 12:13:00,
2013-03-29 08:18:00,29.6,23.3,30.29,SW,232,0.0,0.0,77,0.00,,---,0.00,VWS V14.01,2013-03-29 12:18:00,
2013-03-29 08:23:00,30.2,23.6,30.29,SW,232,0.0,0.0,76,0.00,,---,0.00,VWS V14.01,2013-03-29 12:23:00,
2013-03-29 08:28:00,30.7,23.7,30.28,WNW,300,0.0,1.0,75,0.00,,---,0.00,VWS V14.01,2013-03-29 12:28:00,
2013-03-29 08:33:00,31.1,23.5,30.29,NW,311,1.0,4.0,73,0.00,,---,0.00,VWS V14.01,2013-03-29 12:33:00,
2013-03-29 08:39:00,31.6,24.0,30.29,NW,319,0.0,4.0,73,0.00,,---,0.00,VWS V14.01,2013-03-29 12:39:00,
2013-03-29 08:44:00,32.1,24.1,30.29,NW,320,4.0,6.0,72,0.00,,---,0.00,VWS V14.01,2013-03-29 12:44:00,
2013-03-29 08:49:00,32.5,23.8,30.29,West,269,3.0,6.0,70,0.00,,---,0.00,VWS V14.01,2013-03-29 12:49:00,
2013-03-29 08:54:00,33.0,24.3,30.29,WNW,298,3.0,6.0,70,0.00,,---,0.00,VWS V14.01,2013-03-29 12:54:00,
2013-03-29 08:59:00,33.5,24.1,30.29,WNW,302,2.0,6.0,68,0.00,,---,0.00,VWS V14.01,2013-03-29 12:59:00,
2013-03-29 09:04:00,33.9,24.5,30.29,NNW,333,4.0,4.0,68,0.00,,---,0.00,VWS V14.01,2013-03-29 13:04:00,
2013-03-29 09:09:00,34.3,24.1,30.29,WNW,287,4.0,6.0,66,0.00,,---,0.00,VWS V14.01,2013-03-29 13:09:00,
2013-03-29 09:14:00,34.7,24.5,30.29,North,8,2.0,6.0,66,0.00,,---,0.00,VWS V14.01,2013-03-29 13:14:00,
2013-03-29 09:19:00,35.2,24.3,30.29,NNE,16,4.0,7.0,64,0.00,,---,0.00,VWS V14.01,2013-03-29 13:19:00,
2013-03-29 09:24:00,35.7,25.1,30.29,North,360,2.0,7.0,65,0.00,,---,0.00,VWS V14.01,2013-03-29 13:24:00,
2013-03-29 09:29:00,36.1,24.7,30.29,WNW,297,3.0,7.0,63,0.00,,---,0.00,VWS V14.01,2013-03-29 13:29:00,
2013-03-29 09:35:00,36.2,24.1,30.29,WNW,290,5.0,9.0,61,0.00,,---,0.00,VWS V14.01,2013-03-29 13:35:00,
2013-03-29 09:40:00,36.3,23.8,30.29,WNW,290,3.0,9.0,60,0.00,,---,0.00,VWS V14.01,2013-03-29 13:40:00,
2013-03-29 09:45:00,36.7,24.5,30.29,NNW,328,2.0,9.0,61,0.00,,---,0.00,VWS V14.01,2013-03-29 13:45:00,
2013-03-29 09:50:00,37.0,24.0,30.29,NW,321,2.0,9.0,59,0.00,,---,0.00,VWS V14.01,2013-03-29 13:50:00,
2013-03-29 09:55:00,37.3,23.9,30.29,WNW,291,6.0,9.0,58,0.00,,---,0.00,VWS V14.01,2013-03-29 13:55:00,
2013-03-29 10:00:00,37.5,23.7,30.29,NW,307,5.0,9.0,57,0.00,,---,0.00,VWS V14.01,2013-03-29 14:00:00,
2013-03-29 10:05:00,37.7,23.4,30.29,North,9,7.0,7.0,56,0.00,,---,0.00,VWS V14.01,2013-03-29 14:05:00,
2013-03-29 10:10:00,38.1,23.8,30.29,NNW,340,1.0,7.0,56,0.00,,---,0.00,VWS V14.01,2013-03-29 14:10:00,
2013-03-29 10:16:00,38.5,23.8,30.29,NW,312,5.0,8.0,55,0.00,,---,0.00,VWS V14.01,2013-03-29 14:16:00,
2013-03-29 10:21:00,38.3,22.7,30.29,WNW,292,6.0,8.0,53,0.00,,---,0.00,VWS V14.01,2013-03-29 14:21:00,
2013-03-29 10:26:00,38.6,23.8,30.29,North,11,3.0,10.0,55,0.00,,---,0.00,VWS V14.01,2013-03-29 14:26:00,
2013-03-29 10:31:00,38.9,23.2,30.29,NNW,335,5.0,10.0,53,0.00,,---,0.00,VWS V14.01,2013-03-29 14:31:00,
2013-03-29 10:36:00,39.0,22.9,30.29,NW,304,5.0,10.0,52,0.00,,---,0.00,VWS V14.01,2013-03-29 14:36:00,
2013-03-29 10:41:00,39.0,22.9,30.29,NNW,332,5.0,10.0,52,0.00,,---,0.00,VWS V14.01,2013-03-29 14:41:00,
2013-03-29 10:46:00,39.3,22.2,30.29,NW,325,6.0,10.0,50,0.00,,---,0.00,VWS V14.01,2013-03-29 14:46:00,
2013-03-29 10:52:00,39.5,22.4,30.29,NW,323,3.0,10.0,50,0.00,,---,0.00,VWS V14.01,2013-03-29 14:52:00,
2013-03-29 10:57:00,39.7,22.1,30.29,NNE,32,3.0,10.0,49,0.00,,---,0.00,VWS V14.01,2013-03-29 14:57:00,
2013-03-29 11:02:00,39.9,23.3,30.29,North,352,1.0,3.0,51,0.00,,---,0.00,VWS V14.01,2013-03-29 15:02:00,
2013-03-29 11:07:00,40.7,23.0,30.29,WNW,291,1.0,6.0,49,0.00,,---,0.00,VWS V14.01,2013-03-29 15:07:00,
2013-03-29 11:12:00,41.0,23.8,30.29,WNW,294,4.0,6.0,50,0.00,,---,0.00,VWS V14.01,2013-03-29 15:12:00,
2013-03-29 11:17:00,41.1,22.9,30.28,SW,231,4.0,7.0,48,0.00,,---,0.00,VWS V14.01,2013-03-29 15:17:00,
2013-03-29 11:22:00,41.3,23.1,30.28,WSW,250,1.0,7.0,48,0.00,,---,0.00,VWS V14.01,2013-03-29 15:22:00,
2013-03-29 11:27:00,41.4,22.2,30.29,West,268,5.0,7.0,46,0.00,,---,0.00,VWS V14.01,2013-03-29 15:27:00,
2013-03-29 11:32:00,41.5,21.8,30.29,WSW,242,5.0,7.0,45,0.00,,---,0.00,VWS V14.01,2013-03-29 15:32:00,
2013-03-29 11:37:00,42.0,23.2,30.29,WSW,253,5.0,7.0,47,0.00,,---,0.00,VWS V14.01,2013-03-29 15:37:00,
2013-03-29 11:42:00,42.2,22.9,30.29,WNW,284,2.0,7.0,46,0.00,,---,0.00,VWS V14.01,2013-03-29 15:42:00,
2013-03-29 11:48:00,42.5,23.2,30.28,West,280,3.0,7.0,46,0.00,,---,0.00,VWS V14.01,2013-03-29 15:48:00,
2013-03-29 11:53:00,42.7,22.9,30.28,WNW,295,4.0,8.0,45,0.00,,---,0.00,VWS V14.01,2013-03-29 15:53:00,
2013-03-29 11:58:00,42.7,22.9,30.28,West,274,1.0,8.0,45,0.00,,---,0.00,VWS V14.01,2013-03-29 15:58:00,
2013-03-29 12:03:00,42.7,21.8,30.28,WSW,258,4.0,6.0,43,0.00,,---,0.00,VWS V14.01,2013-03-29 16:03:00,
2013-03-29 12:08:00,42.8,21.3,30.28,WNW,293,4.0,10.0,42,0.00,,---,0.00,VWS V14.01,2013-03-29 16:08:00,
2013-03-29 12:13:00,43.0,22.0,30.28,WNW,302,7.0,10.0,43,0.00,,---,0.00,VWS V14.01,2013-03-29 16:13:00,
2013-03-29 12:18:00,43.5,22.5,30.28,West,271,7.0,10.0,43,0.00,,---,0.00,VWS V14.01,2013-03-29 16:18:00,
2013-03-29 12:23:00,43.5,22.5,30.28,WNW,284,3.0,10.0,43,0.00,,---,0.00,VWS V14.01,2013-03-29 16:23:00,
2013-03-29 12:28:00,44.0,23.0,30.28,WNW,285,7.0,11.0,43,0.00,,---,0.00,VWS V14.01,2013-03-29 16:28:00,
2013-03-29 12:33:00,43.9,23.4,30.27,WSW,246,7.0,13.0,44,0.00,,---,0.00,VWS V14.01,2013-03-29 16:33:00,
2013-03-29 12:38:00,44.0,23.0,30.27,WNW,300,2.0,13.0,43,0.00,,---,0.00,VWS V14.01,2013-03-29 16:38:00,
2013-03-29 12:44:00,44.7,24.7,30.27,East,79,0.0,13.0,45,0.00,,---,0.00,VWS V14.01,2013-03-29 16:44:00,
2013-03-29 12:49:00,45.7,25.0,30.27,WSW,253,2.0,18.0,44,0.00,,---,0.00,VWS V14.01,2013-03-29 16:49:00,
2013-03-29 12:54:00,46.1,23.7,30.27,NE,46,5.0,18.0,41,0.00,,---,0.00,VWS V14.01,2013-03-29 16:54:00,
2013-03-29 12:59:00,45.9,23.0,30.27,NNW,332,6.0,18.0,40,0.00,,---,0.00,VWS V14.01,2013-03-29 16:59:00,
2013-03-29 13:04:00,45.5,23.8,30.27,NW,323,1.0,5.0,42,0.00,,---,0.00,VWS V14.01,2013-03-29 17:04:00,
2013-03-29 13:09:00,45.6,23.3,30.26,SW,219,3.0,8.0,41,0.00,,---,0.00,VWS V14.01,2013-03-29 17:09:00,
2013-03-29 13:15:00,46.0,23.6,30.26,NNW,329,2.0,8.0,41,0.00,,---,0.00,VWS V14.01,2013-03-29 17:15:00,
2013-03-29 13:20:00,46.4,22.2,30.26,West,263,7.0,9.0,38,0.00,,---,0.00,VWS V14.01,2013-03-29 17:20:00,
2013-03-29 13:25:00,46.5,22.3,30.26,WNW,282,7.0,10.0,38,0.00,,---,0.00,VWS V14.01,2013-03-29 17:25:00,
2013-03-29 13:30:00,46.1,22.5,30.26,NNW,342,2.0,12.0,39,0.00,,---,0.00,VWS V14.01,2013-03-29 17:30:00,
2013-03-29 13:35:00,46.1,21.9,30.26,WNW,301,7.0,12.0,38,0.00,,---,0.00,VWS V14.01,2013-03-29 17:35:00,
2013-03-29 13:40:00,46.1,22.5,30.25,NW,318,3.0,12.0,39,0.00,,---,0.00,VWS V14.01,2013-03-29 17:40:00,
2013-03-29 13:45:00,46.5,21.6,30.25,WNW,302,6.0,12.0,37,0.00,,---,0.00,VWS V14.01,2013-03-29 17:45:00,
2013-03-29 13:50:00,46.7,22.5,30.25,SE,136,2.0,12.0,38,0.00,,---,0.00,VWS V14.01,2013-03-29 17:50:00,
2013-03-29 13:55:00,47.2,22.3,30.25,NW,309,6.0,12.0,37,0.00,,---,0.00,VWS V14.01,2013-03-29 17:55:00,
2013-03-29 14:01:00,47.5,22.5,30.25,NW,305,2.0,12.0,37,0.00,,---,0.00,VWS V14.01,2013-03-29 18:01:00,
2013-03-29 14:06:00,47.2,21.6,30.25,NW,314,3.0,7.0,36,0.00,,---,0.00,VWS V14.01,2013-03-29 18:06:00,
2013-03-29 14:11:00,47.6,21.3,30.25,NW,326,6.0,10.0,35,0.00,,---,0.00,VWS V14.01,2013-03-29 18:11:00,
2013-03-29 14:16:00,47.5,21.9,30.24,WNW,301,5.0,10.0,36,0.00,,---,0.00,VWS V14.01,2013-03-29 18:16:00,
2013-03-29 14:21:00,47.6,22.6,30.24,NNW,347,6.0,10.0,37,0.00,,---,0.00,VWS V14.01,2013-03-29 18:21:00,
2013-03-29 14:26:00,48.0,23.0,30.24,SSE,149,2.0,10.0,37,0.00,,---,0.00,VWS V14.01,2013-03-29 18:26:00,
2013-03-29 14:31:00,48.8,23.0,30.24,SSW,211,4.0,10.0,36,0.00,,---,0.00,VWS V14.01,2013-03-29 18:31:00,
2013-03-29 14:37:00,49.2,22.7,30.24,SW,221,3.0,10.0,35,0.00,,---,0.00,VWS V14.01,2013-03-29 18:37:00,
2013-03-29 14:42:00,49.1,22.6,30.24,NW,309,4.0,10.0,35,0.00,,---,0.00,VWS V14.01,2013-03-29 18:42:00,
2013-03-29 14:47:00,48.2,21.9,30.23,WNW,295,3.0,10.0,35,0.00,,---,0.00,VWS V14.01,2013-03-29 18:47:00,
2013-03-29 14:52:00,48.3,23.3,30.23,NE,40,2.0,10.0,37,0.00,,---,0.00,VWS V14.01,2013-03-29 18:52:00,
2013-03-29 14:57:00,48.7,22.3,30.23,SSE,154,1.0,10.0,35,0.00,,---,0.00,VWS V14.01,2013-03-29 18:57:00,
2013-03-29 15:02:00,48.9,23.8,30.23,SSE,152,4.0,4.0,37,0.00,,---,0.00,VWS V14.01,2013-03-29 19:02:00,
2013-03-29 15:07:00,49.5,22.3,30.22,NNW,342,2.0,10.0,34,0.00,,---,0.00,VWS V14.01,2013-03-29 19:07:00,
2013-03-29 15:12:00,48.9,22.5,30.22,West,274,2.0,10.0,35,0.00,,---,0.00,VWS V14.01,2013-03-29 19:12:00,
2013-03-29 15:18:00,49.1,22.0,30.22,NW,304,7.0,10.0,34,0.00,,---,0.00,VWS V14.01,2013-03-29 19:18:00,
2013-03-29 15:23:00,48.9,21.8,30.22,NW,311,1.0,10.0,34,0.00,,---,0.00,VWS V14.01,2013-03-29 19:23:00,
2013-03-29 15:28:00,49.3,22.1,30.22,WNW,301,5.0,10.0,34,0.00,,---,0.00,VWS V14.01,2013-03-29 19:28:00,
2013-03-29 15:33:00,49.2,21.3,30.22,NNE,18,4.0,10.0,33,0.00,,---,0.00,VWS V14.01,2013-03-29 19:33:00,
2013-03-29 15:38:00,49.1,22.6,30.22,WNW,292,3.0,10.0,35,0.00,,---,0.00,VWS V14.01,2013-03-29 19:38:00,
2013-03-29 15:43:00,49.1,22.6,30.21,ESE,110,7.0,11.0,35,0.00,,---,0.00,VWS V14.01,2013-03-29 19:43:00,
2013-03-29 15:48:00,49.3,22.8,30.21,West,281,6.0,14.0,35,0.00,,---,0.00,VWS V14.01,2013-03-29 19:48:00,
2013-03-29 15:53:00,48.9,21.8,30.21,NW,309,3.0,14.0,34,0.00,,---,0.00,VWS V14.01,2013-03-29 19:53:00,
2013-03-29 15:58:00,49.7,22.5,30.21,WSW,240,7.0,14.0,34,0.00,,---,0.00,VWS V14.01,2013-03-29 19:58:00,
2013-03-29 16:03:00,49.8,21.9,30.21,WNW,293,6.0,9.0,33,0.00,,---,0.00,VWS V14.01,2013-03-29 20:03:00,
2013-03-29 16:08:00,50.4,22.4,30.21,WNW,301,8.0,10.0,33,0.00,,---,0.00,VWS V14.01,2013-03-29 20:08:00,
2013-03-29 16:13:00,49.8,21.9,30.21,WSW,255,5.0,10.0,33,0.00,,---,0.00,VWS V14.01,2013-03-29 20:13:00,
2013-03-29 16:18:00,49.8,21.1,30.21,NNW,335,3.0,10.0,32,0.00,,---,0.00,VWS V14.01,2013-03-29 20:18:00,
2013-03-29 16:24:00,49.4,21.5,30.21,West,270,7.0,10.0,33,0.00,,---,0.00,VWS V14.01,2013-03-29 20:24:00,
2013-03-29 16:29:00,49.3,22.1,30.21,West,276,2.0,10.0,34,0.00,,---,0.00,VWS V14.01,2013-03-29 20:29:00,
2013-03-29 16:34:00,49.7,21.8,30.21,NNW,338,0.0,10.0,33,0.00,,---,0.00,VWS V14.01,2013-03-29 20:34:00,
2013-03-29 16:39:00,50.1,22.1,30.21,WNW,284,4.0,10.0,33,0.00,,---,0.00,VWS V14.01,2013-03-29 20:39:00,
2013-03-29 16:44:00,50.1,23.5,30.21,SW,215,1.0,10.0,35,0.00,,---,0.00,VWS V14.01,2013-03-29 20:44:00,
2013-03-29 16:49:00,50.8,23.5,30.20,ENE,66,2.0,10.0,34,0.00,,---,0.00,VWS V14.01,2013-03-29 20:49:00,
2013-03-29 16:54:00,50.9,21.4,30.20,North,11,2.0,10.0,31,0.00,,---,0.00,VWS V14.01,2013-03-29 20:54:00,
2013-03-29 16:59:00,50.5,22.5,30.20,NW,312,8.0,10.0,33,0.00,,---,0.00,VWS V14.01,2013-03-29 20:59:00,
2013-03-29 17:04:00,50.5,22.5,30.20,WNW,298,3.0,11.0,33,0.00,,---,0.00,VWS V14.01,2013-03-29 21:04:00,
2013-03-29 17:09:00,50.3,22.3,30.20,North,11,3.0,11.0,33,0.00,,---,0.00,VWS V14.01,2013-03-29 21:09:00,
2013-03-29 17:14:00,50.5,23.2,30.20,North,8,2.0,11.0,34,0.00,,---,0.00,VWS V14.01,2013-03-29 21:14:00,
2013-03-29 17:19:00,50.8,22.0,30.20,NE,39,1.0,11.0,32,0.00,,---,0.00,VWS V14.01,2013-03-29 21:19:00,
2013-03-29 17:24:00,50.6,22.6,30.20,NE,34,7.0,11.0,33,0.00,,---,0.00,VWS V14.01,2013-03-29 21:24:00,
2013-03-29 17:29:00,50.3,23.7,30.20,NE,43,10.0,11.0,35,0.00,,---,0.00,VWS V14.01,2013-03-29 21:29:00,
2013-03-29 17:34:00,49.9,22.7,30.20,NE,49,4.0,11.0,34,0.00,,---,0.00,VWS V14.01,2013-03-29 21:34:00,
2013-03-29 17:40:00,49.9,22.7,30.20,NW,305,4.0,11.0,34,0.00,,---,0.00,VWS V14.01,2013-03-29 21:40:00,
2013-03-29 17:45:00,49.9,22.0,30.20,NNW,346,6.0,11.0,33,0.00,,---,0.00,VWS V14.01,2013-03-29 21:45:00,
2013-03-29 17:50:00,49.5,21.6,30.20,NW,322,4.0,11.0,33,0.00,,---,0.00,VWS V14.01,2013-03-29 21:50:00,
2013-03-29 17:55:00,49.4,21.5,30.20,WNW,297,4.0,11.0,33,0.00,,---,0.00,VWS V14.01,2013-03-29 21:55:00,
2013-03-29 18:00:00,49.3,22.1,30.20,West,270,2.0,11.0,34,0.00,,---,0.00,VWS V14.01,2013-03-29 22:00:00,
2013-03-29 18:05:00,49.7,21.8,30.20,NW,324,6.0,9.0,33,0.00,,---,0.00,VWS V14.01,2013-03-29 22:05:00,
2013-03-29 18:10:00,49.9,21.2,30.20,West,276,6.0,9.0,32,0.00,,---,0.00,VWS V14.01,2013-03-29 22:10:00,
2013-03-29 18:15:00,50.0,21.3,30.20,NNE,29,6.0,9.0,32,0.00,,---,0.00,VWS V14.01,2013-03-29 22:15:00,
2013-03-29 18:20:00,50.2,22.2,30.20,NNW,345,1.0,9.0,33,0.00,,---,0.00,VWS V14.01,2013-03-29 22:20:00,
2013-03-29 18:25:00,49.9,22.0,30.20,WNW,294,2.0,9.0,33,0.00,,---,0.00,VWS V14.01,2013-03-29 22:25:00,
2013-03-29 18:30:00,49.4,21.5,30.20,NW,304,4.0,9.0,33,0.00,,---,0.00,VWS V14.01,2013-03-29 22:30:00,
2013-03-29 18:35:00,48.7,21.6,30.20,NW,323,4.0,9.0,34,0.00,,---,0.00,VWS V14.01,2013-03-29 22:35:00,
2013-03-29 18:40:00,48.2,21.9,30.20,WNW,287,2.0,9.0,35,0.00,,---,0.00,VWS V14.01,2013-03-29 22:40:00,
2013-03-29 18:46:00,47.8,21.5,30.20,NW,304,2.0,9.0,35,0.00,,---,0.00,VWS V14.01,2013-03-29 22:46:00,
2013-03-29 18:51:00,48.1,21.8,30.20,WNW,302,2.0,9.0,35,0.00,,---,0.00,VWS V14.01,2013-03-29 22:51:00,
2013-03-29 18:56:00,48.5,22.1,30.20,WNW,290,1.0,9.0,35,0.00,,---,0.00,VWS V14.01,2013-03-29 22:56:00,
2013-03-29 19:01:00,49.0,22.6,30.20,WNW,292,3.0,9.0,35,0.00,,---,0.00,VWS V14.01,2013-03-29 23:01:00,
2013-03-29 19:06:00,48.9,21.8,30.20,West,272,4.0,6.0,34,0.00,,---,0.00,VWS V14.01,2013-03-29 23:06:00,
2013-03-29 19:11:00,48.8,21.7,30.20,NW,309,4.0,6.0,34,0.00,,---,0.00,VWS V14.01,2013-03-29 23:11:00,
2013-03-29 19:16:00,48.9,22.5,30.20,North,354,2.0,6.0,35,0.00,,---,0.00,VWS V14.01,2013-03-29 23:16:00,
2013-03-29 19:21:00,48.5,22.1,30.20,North,354,3.0,6.0,35,0.00,,---,0.00,VWS V14.01,2013-03-29 23:21:00,
2013-03-29 19:26:00,48.3,22.6,30.20,NNE,15,2.0,6.0,36,0.00,,---,0.00,VWS V14.01,2013-03-29 23:26:00,
2013-03-29 19:32:00,48.0,22.3,30.21,NW,324,2.0,6.0,36,0.00,,---,0.00,VWS V14.01,2013-03-29 23:32:00,
2013-03-29 19:37:00,47.8,22.8,30.21,North,352,0.0,6.0,37,0.00,,---,0.00,VWS V14.01,2013-03-29 23:37:00,
2013-03-29 19:42:00,47.6,22.6,30.21,NW,318,3.0,6.0,37,0.00,,---,0.00,VWS V14.01,2013-03-29 23:42:00,
2013-03-29 19:47:00,47.0,22.7,30.20,NNW,332,2.0,6.0,38,0.00,,---,0.00,VWS V14.01,2013-03-29 23:47:00,
2013-03-29 19:52:00,46.3,22.1,30.21,NNW,332,0.0,6.0,38,0.00,,---,0.00,VWS V14.01,2013-03-29 23:52:00,
2013-03-29 19:57:00,45.7,22.2,30.21,NNW,335,1.0,6.0,39,0.00,,---,0.00,VWS V14.01,2013-03-29 23:57:00,
2013-03-29 20:02:00,45.2,22.3,30.21,NNW,338,0.0,0.0,40,0.00,,---,0.00,VWS V14.01,2013-03-30 00:02:00,
2013-03-29 20:07:00,44.7,21.9,30.21,NNW,338,0.0,1.0,40,0.00,,---,0.00,VWS V14.01,2013-03-30 00:07:00,
2013-03-29 20:13:00,44.3,23.2,30.21,NNW,339,0.0,1.0,43,0.00,,---,0.00,VWS V14.01,2013-03-30 00:13:00,
2013-03-29 20:18:00,43.8,22.8,30.21,ENE,57,1.0,1.0,43,0.00,,---,0.00,VWS V14.01,2013-03-30 00:18:00,
2013-03-29 20:23:00,43.3,22.9,30.21,ENE,63,0.0,2.0,44,0.00,,---,0.00,VWS V14.01,2013-03-30 00:23:00,
2013-03-29 20:28:00,42.7,22.9,30.21,ENE,63,1.0,2.0,45,0.00,,---,0.00,VWS V14.01,2013-03-30 00:28:00,
2013-03-29 20:33:00,42.2,22.9,30.21,ENE,63,0.0,2.0,46,0.00,,---,0.00,VWS V14.01,2013-03-30 00:33:00,
2013-03-29 20:38:00,41.9,22.1,30.21,ENE,63,0.0,2.0,45,0.00,,---,0.00,VWS V14.01,2013-03-30 00:38:00,
2013-03-29 20:43:00,41.0,23.3,30.21,ENE,63,0.0,2.0,49,0.00,,---,0.00,VWS V14.01,2013-03-30 00:43:00,
2013-03-29 20:48:00,39.7,23.5,30.22,ENE,63,0.0,2.0,52,0.00,,---,0.00,VWS V14.01,2013-03-30 00:48:00,
2013-03-29 20:53:00,38.8,23.1,30.22,ENE,63,0.0,2.0,53,0.00,,---,0.00,VWS V14.01,2013-03-30 00:53:00,
2013-03-29 20:58:00,38.6,22.5,30.22,ENE,63,0.0,2.0,52,0.00,,---,0.00,VWS V14.01,2013-03-30 00:58:00,
2013-03-29 21:03:00,38.6,22.5,30.22,ENE,64,0.0,0.0,52,0.00,,---,0.00,VWS V14.01,2013-03-30 01:03:00,
2013-03-29 21:08:00,38.4,22.8,30.22,ENE,64,0.0,1.0,53,0.00,,---,0.00,VWS V14.01,2013-03-30 01:08:00,
2013-03-29 21:14:00,37.8,22.7,30.22,ENE,64,0.0,1.0,54,0.00,,---,0.00,VWS V14.01,2013-03-30 01:14:00,
2013-03-29 21:19:00,37.2,23.4,30.22,ENE,63,0.0,1.0,57,0.00,,---,0.00,VWS V14.01,2013-03-30 01:19:00,
2013-03-29 21:24:00,36.7,22.9,30.22,ENE,63,0.0,1.0,57,0.00,,---,0.00,VWS V14.01,2013-03-30 01:24:00,
2013-03-29 21:29:00,36.3,23.0,30.22,ENE,64,0.0,1.0,58,0.00,,---,0.00,VWS V14.01,2013-03-30 01:29:00,
2013-03-29 21:34:00,36.0,23.1,30.22,ENE,63,1.0,1.0,59,0.00,,---,0.00,VWS V14.01,2013-03-30 01:34:00,
2013-03-29 21:39:00,35.7,23.2,30.22,ENE,64,0.0,1.0,60,0.00,,---,0.00,VWS V14.01,2013-03-30 01:39:00,
2013-03-29 21:44:00,35.4,23.7,30.23,ENE,63,0.0,1.0,62,0.00,,---,0.00,VWS V14.01,2013-03-30 01:44:00,
2013-03-29 21:49:00,35.1,23.4,30.22,ENE,64,0.0,1.0,62,0.00,,---,0.00,VWS V14.01,2013-03-30 01:49:00,
2013-03-29 21:54:00,34.9,22.8,30.22,ENE,63,0.0,1.0,61,0.00,,---,0.00,VWS V14.01,2013-03-30 01:54:00,
2013-03-29 21:59:00,34.6,23.3,30.23,ENE,63,0.0,1.0,63,0.00,,---,0.00,VWS V14.01,2013-03-30 01:59:00,
2013-03-29 22:04:00,34.2,23.3,30.23,ENE,63,0.0,0.0,64,0.00,,---,0.00,VWS V14.01,2013-03-30 02:04:00,
2013-03-29 22:09:00,33.7,23.2,30.23,ENE,64,0.0,0.0,65,0.00,,---,0.00,VWS V14.01,2013-03-30 02:09:00,
2013-03-29 22:14:00,33.3,23.2,30.23,ENE,63,0.0,0.0,66,0.00,,---,0.00,VWS V14.01,2013-03-30 02:14:00,
2013-03-29 22:19:00,32.9,23.2,30.23,ENE,63,0.0,0.0,67,0.00,,---,0.00,VWS V14.01,2013-03-30 02:19:00,
2013-03-29 22:24:00,32.6,23.2,30.23,ENE,63,0.0,0.0,68,0.00,,---,0.00,VWS V14.01,2013-03-30 02:24:00,
2013-03-29 22:30:00,32.0,22.6,30.23,ENE,63,0.0,0.0,68,0.00,,---,0.00,VWS V14.01,2013-03-30 02:30:00,
2013-03-29 22:35:00,31.4,22.4,30.23,ENE,64,0.0,0.0,69,0.00,,---,0.00,VWS V14.01,2013-03-30 02:35:00,
2013-03-29 22:40:00,31.0,22.4,30.23,ENE,63,0.0,0.0,70,0.00,,---,0.00,VWS V14.01,2013-03-30 02:40:00,
2013-03-29 22:45:00,31.0,23.0,30.23,ENE,64,0.0,0.0,72,0.00,,---,0.00,VWS V14.01,2013-03-30 02:45:00,
2013-03-29 22:50:00,31.4,23.4,30.23,ENE,64,0.0,0.0,72,0.00,,---,0.00,VWS V14.01,2013-03-30 02:50:00,
2013-03-29 22:55:00,31.4,23.8,30.22,ENE,63,0.0,0.0,73,0.00,,---,0.00,VWS V14.01,2013-03-30 02:55:00,
2013-03-29 23:00:00,31.3,24.0,30.22,ENE,63,0.0,0.0,74,0.00,,---,0.00,VWS V14.01,2013-03-30 03:00:00,
2013-03-29 23:06:00,31.2,23.6,30.23,ENE,64,0.0,0.0,73,0.00,,---,0.00,VWS V14.01,2013-03-30 03:06:00,
2013-03-29 23:11:00,31.0,23.4,30.23,West,277,5.0,6.0,73,0.00,,---,0.00,VWS V14.01,2013-03-30 03:11:00,
2013-03-29 23:16:00,31.6,24.0,30.23,SW,223,1.0,6.0,73,0.00,,---,0.00,VWS V14.01,2013-03-30 03:16:00,
2013-03-29 23:21:00,32.0,24.0,30.23,SSE,150,1.0,6.0,72,0.00,,---,0.00,VWS V14.01,2013-03-30 03:21:00,
2013-03-29 23:26:00,32.3,24.0,30.23,SSE,150,0.0,6.0,71,0.00,,---,0.00,VWS V14.01,2013-03-30 03:26:00,
2013-03-29 23:31:00,32.3,24.0,30.23,SSE,150,0.0,6.0,71,0.00,,---,0.00,VWS V14.01,2013-03-30 03:31:00,
2013-03-29 23:36:00,32.3,24.3,30.23,SSE,150,0.0,6.0,72,0.00,,---,0.00,VWS V14.01,2013-03-30 03:36:00,
2013-03-29 23:41:00,32.1,23.8,30.23,SSE,150,0.0,6.0,71,0.00,,---,0.00,VWS V14.01,2013-03-30 03:41:00,
2013-03-29 23:47:00,31.8,23.8,30.23,SSE,149,0.0,6.0,72,0.00,,---,0.00,VWS V14.01,2013-03-30 03:47:00,
2013-03-29 23:52:00,31.8,24.1,30.23,SSE,149,0.0,6.0,73,0.00,,---,0.00,VWS V14.01,2013-03-30 03:52:00,
2013-03-29 23:57:00,32.1,24.1,30.23,SSE,149,0.0,6.0,72,0.00,,---,0.00,VWS V14.01,2013-03-30 03:57:00,